Simultaneous Nadir Overpasses (SNOs) Predictions

Prediction of SNOs between AQUA and NOAA-19 Satellite Orbit:

Table of predicted SNOs for the next 14.0 days since TLE Epoch: 5/31/2014
Index Date (AQUA) Time (AQUA) Lat,Lon (AQUA) SZA (AQUA ) Date (NOAA-19) Time (NOAA-19) Lat,Lon (NOAA-19) SZA (NOAA-19 ) Distance(km) Time Diff (sec)
1 06/01/2014 18:06:41 76.24,-103.50 54.35 06/01/2014 18:05:55 76.24,-103.51 54.36 0.11 46
2 06/01/2014 18:55:46 -75.22, 67.12 126.80 06/01/2014 18:56:28 -75.21, 67.21 126.82 2.74 42
3 06/03/2014 22:51:04 76.47,-175.36 54.35 06/03/2014 22:49:52 76.47,-175.35 54.37 0.48 72
4 06/03/2014 23:40:15 -75.76, -5.48 126.47 06/03/2014 23:40:32 -75.77, -5.55 126.46 2.08 17
5 06/06/2014 04:24:38 -76.01, -77.31 126.42 06/06/2014 04:24:29 -76.01, -77.32 126.42 0.34 9
6 06/08/20
